SCP
0 0 0 0 0 0 0 0 0 0 0 0 0 0 0 0 0 0 0 0 0 0 0 0 0 0 0 0 0 0 0 0 0 0 0 0 0 0
0 0 0 0 0 0 0 0 0 0 0 0 0 0 0 0 0 0 0 0 0 0 0 0 0 0 0 0 0 0 0 0 0 0 0 0 0 0
0 0 0 0 0 0 0 0 0 0 0 0 0 0 0 0 0 0 0 0 0 0 0 0 0 0 0 0 0 0 0 0 0 0 0 0 0 0
0 0 0 0 0 0 0 0 0 0 0 0 0 0 0 0 0 0 0 0 0 0 0 0 0 0 0 0 0 0 0 0 0 0 0 0 0 0
0 0 0 0 0 0 0 0 0 0 0 0 0 0 0 0 0 0 0 0 0 0 0 0 0 0 0 0 0 0 0 0 0 0 0 0 0 0
0 0 0 0 0 0 0 0 0 0 0 0 0 0 0 0 0 0 0 0 0 0 0 0 0 0 0 0 0 0 0 0 0 0 0 0 0 0
0 0 0 0 0 0 0 0 0 0 0 0 0 0 0 0 0 0 0 0 0 0 0 0 0 0 0 0 0 0 0 0 0 0 0 0 0 0
0 0 0 0 0 0 0 0 0 0 0 0 0 0 0 0 0 0 0 0 0 0 0 0 0 0 0 0 0 0 0 0 0 0 0 0 0 0
0 0 0 0 0 0 0 0 0 0 0 0 0 0 0 0 0 0 0 0 0 0 0 0 0 0 0 0 0 0 0 0 0 0 0 0 0 0
0 0 0 0 0 0 0 0 0 0 0 0 0 0 0 0 0 0 0 0 0 0 0 0 0 0 0 0 0 0 0 0 0 0 0 0 0 0
0 0 0 0 0 0 0 0 0 0 0 0 0 0 0 0 0 0 0 0 0 0 0 0 0 0 0 0 0 0 0 0 0 0 0 0 0 0
0 0 0 0 0 0 0 0 0 0 0 0 0 0 0 0 0 0 0 0 0 0 0 0 0 0 0 0 0 0 0 0 0 0 0 0 0 0
0 0 0 0 0 0 0 0 0 0 0 0 0 0 0 0 0 0 0 0 0 0 0 0 0 0 0 0 0 0 0 0 0 0 0 0 0 0
0 0 0 0 0 0 0 0 0 0 0 0 0 0 0 0 0 0 0 0 0 0 0 0 0 0 0 0 0 0 0 0 0 0 0 0 0 0
0 0 0 0 0 0 0 0 0 0 0 0 0 0 0 0 0 0 0 0 0 0 0 0 0 0 0 0 0 0 0 0 0 0 0 0 0 0
0 0 0 0 0 0 0 0 0 0 0 0 0 0 0 0 0 0 0 0 0 0 0 0 0 0 0 0 0 0 0 0 0 0 0 0 0 0
0 0 0 0 0 0 0 0 0 0 0 0 0 0 0 0 0 0 0 0 0 0 0 0 0 0 0 0 0 0 0 0 0 0 0 0 0 0
0 0 0 0 0 0 0 0 0 0 0 0 0 0 0 0 0 0 0 0 0 0 0 0 0 0 0 0 0 0 0 0 0 0 0 0 0 0
0 0 0 0 0 0 0 0 0 0 0 0 0 0 0 0 0 0 0 0 0 0 0 0 0 0 0 0 0 0 0 0 0 0 0 0 0 0
0 0 0 0 0 0 0 0 0 0 0 0 0 0 0 0 0 0 0 0 0 0 0 0 0 0 0 0 0 0 0 0 0 0 0 0 0 0
0 0 0 0 0 0 0 0 0 0 0 0 0 0 0 0 0 0 0 0 0 0 0 0 0 0 0 0 0 0 0 0 0 0 0 0 0 0
0 0 0 0 0 0 0 0 0 0 0 0 0 0 0 0 0 0 0 0 0 0 0 0 0 0 0 0 0 0 0 0 0 0 0 0 0 0
0 0 0 0 0 0 0 0 0 0 0 0 0 0 0 0 0 0 0 0 0 0 0 0 0 0 0 0 0 0 0 0 0 0 0 0 0 0
Wind_Speed
3 3 2 1 1 1 1 1 2 3 4 3 2 2 3 3 8 6 6 13 17 18 19 19 20 21 21 22 22 23 23 23 24 24 25 25 26 26
3 4 3 2 2 2 1 0 1 2 4 2 2 2 4 4 9 6 6 14 15 17 18 19 20 21 21 21 22 22 23 23 24 24 25 25 26 27
4 5 4 3 3 2 2 2 1 0 4 4 2 3 4 5 6 5 5 6 7 15 18 19 19 20 21 21 22 22 23 23 23 24 24 25 26 27
5 5 4 3 4 3 2 2 1 1 2 5 4 3 4 5 6 6 6 6 5 14 19 19 18 19 21 21 21 22 22 22 23 23 24 24 25 26
5 5 4 4 4 2 2 2 1 1 1 3 5 3 4 4 6 6 6 5 6 10 15 15 17 19 21 21 21 20 21 21 22 22 23 23 24 25
5 5 4 4 3 2 2 1 1 1 2 3 5 5 4 5 4 6 8 5 6 7 9 11 15 18 19 19 20 19 20 20 21 22 22 23 24 24
5 4 4 3 3 2 1 1 1 1 2 3 4 5 5 6 7 6 9 9 7 4 4 6 8 7 9 13 16 18 19 20 21 22 21 22 22 22
5 4 3 3 2 3 3 2 2 2 3 3 4 6 8 7 7 8 9 10 8 3 6 9 5 7 6 6 14 19 18 19 20 20 20 21 20 20
4 3 2 2 1 0 1 3 3 5 6 4 6 7 8 8 9 10 8 9 10 8 8 9 5 6 6 8 17 17 17 18 19 20 20 20 20 19
3 3 2 1 0 1 1 2 2 3 5 3 4 6 7 7 7 7 9 9 8 5 4 7 6 6 6 6 12 14 15 17 18 18 19 19 18 18
3 2 2 1 2 4 2 3 4 4 6 8 9 10 13 13 10 5 5 7 8 6 2 4 5 7 6 4 6 13 15 16 17 17 18 18 18 17
2 1 1 1 3 4 1 2 4 5 4 5 6 8 7 8 10 5 4 5 6 6 3 3 4 5 6 4 3 5 8 12 15 16 17 18 18 11
2 1 1 3 4 5 4 2 5 6 3 4 5 5 4 4 4 4 4 5 6 6 4 4 5 3 4 6 5 3 4 6 7 8 12 17 18 14
2 1 2 4 4 5 3 5 7 5 2 3 4 4 4 4 4 5 5 5 6 8 7 5 5 4 5 5 6 4 4 4 5 6 7 12 13 16
2 2 2 3 3 2 4 5 3 2 2 3 4 4 4 4 5 5 5 5 6 6 5 5 5 5 5 5 5 4 5 4 4 6 7 7 7 8
1 0 1 2 1 2 2 2 2 1 2 3 4 4 4 4 4 4 4 5 5 4 3 4 4 5 4 5 5 5 4 4 5 6 6 6 6 6
2 1 0 0 1 1 1 1 1 1 2 2 3 4 4 4 4 3 3 3 4 5 5 4 4 4 5 4 3 3 3 3 4 5 5 5 5 6
3 2 2 2 2 2 2 2 2 2 2 2 3 3 4 4 5 3 3 3 4 5 5 5 5 4 3 3 2 3 2 3 4 5 4 4 5 5
3 3 3 3 3 3 3 2 2 2 2 3 3 3 4 4 4 4 3 3 4 4 4 4 3 2 3 4 4 2 3 3 4 4 3 3 4 6
3 3 4 3 3 3 2 2 3 2 2 3 3 3 3 3 4 4 3 4 4 4 4 3 3 2 3 4 4 4 5 4 3 4 4 3 4 6
4 4 3 3 3 3 3 3 3 3 3 3 3 3 3 3 3 4 4 4 4 3 5 4 4 5 3 2 3 4 3 5 6 4 4 4 4 4
4 4 4 4 3 3 3 3 3 3 3 3 4 4 3 3 4 4 4 4 4 4 5 4 4 3 2 3 4 5 5 5 6 8 7 4 2 3
5 4 4 4 4 3 3 4 4 4 4 4 4 4 3 3 3 4 4 4 4 4 4 4 3 2 2 3 4 4 5 5 4 4 4 6 8 8
Wind_Direction
144 140 134 124 114 116 148 179 226 284 294 294 313 357 5 356 347 343 333 333 336 334 332 330 328 326 324 323 321 319 318 317 316 315 314 313 311 308
117 113 102 93 93 86 96 100 205 242 272 282 291 335 347 343 339 334 323 331 331 331 329 328 327 326 326 325 324 323 321 319 318 316 315 313 312 309
103 106 99 90 87 72 65 62 45 324 272 292 307 336 331 326 324 322 318 315 318 325 326 326 326 327 327 325 324 323 321 319 318 317 315 313 311 310
108 103 97 91 83 71 66 60 41 9 300 298 307 319 314 315 313 315 317 317 308 319 323 324 326 327 326 324 324 323 322 320 319 317 316 314 313 313
107 106 104 100 90 75 70 60 29 356 324 296 302 299 299 308 317 312 305 303 303 313 319 322 324 325 324 322 323 323 322 321 320 319 318 317 316 315
98 101 102 102 105 98 83 57 6 332 309 299 298 303 302 308 316 322 323 319 311 308 313 320 319 321 320 321 321 321 321 321 322 321 321 320 319 317
98 94 96 96 91 89 86 31 347 324 317 312 310 313 316 328 330 324 318 318 308 294 312 312 311 308 311 315 318 321 323 324 325 325 323 322 322 321
111 102 97 89 75 55 31 3 342 321 311 304 306 310 314 317 317 317 317 321 318 318 321 309 301 301 304 304 318 325 327 330 331 333 334 332 331 330
119 118 109 95 94 78 337 336 322 312 306 297 295 300 305 310 310 310 309 306 301 307 311 301 305 302 307 313 322 328 334 336 337 337 340 340 340 341
119 124 128 131 259 308 291 300 291 292 302 297 275 285 291 295 293 298 302 300 289 281 286 294 307 306 310 308 321 336 340 340 341 343 345 346 349 350
126 130 143 184 299 332 337 312 307 298 310 312 308 309 312 314 316 314 312 312 308 305 302 290 304 312 305 299 319 336 341 341 343 347 350 352 352 352
135 147 190 247 305 325 325 302 301 304 311 316 315 316 315 314 319 312 301 300 302 301 320 316 302 319 309 299 314 328 334 339 345 350 352 355 356 353
166 185 243 295 310 316 318 290 298 316 317 309 306 306 310 312 312 308 295 285 286 281 300 315 298 297 280 298 307 319 332 334 340 347 352 353 355 357
182 204 252 295 309 316 321 322 329 338 328 315 310 309 313 313 310 304 293 283 273 276 286 291 284 289 291 290 294 313 328 333 343 345 342 348 353 355
190 227 272 298 320 332 331 338 353 346 318 306 302 301 302 300 303 303 297 293 285 279 285 287 284 284 275 274 288 304 317 327 348 345 340 342 344 347
171 215 301 305 319 339 340 343 348 320 297 291 296 301 305 307 307 309 309 316 310 301 299 306 306 296 282 275 274 286 300 308 330 338 335 334 340 347
136 89 53 340 297 299 302 296 299 310 298 294 296 299 302 304 304 309 303 309 300 305 312 316 315 304 281 271 278 281 299 310 322 333 336 332 335 343
149 176 208 219 234 244 258 272 269 274 285 293 291 291 297 300 302 303 301 299 299 301 306 315 325 328 327 303 259 285 305 310 323 327 330 326 325 335
183 202 214 220 229 236 242 250 261 267 276 279 281 285 289 291 295 299 301 301 298 298 302 309 314 324 319 304 304 344 325 319 323 323 324 319 309 319
199 209 217 220 225 231 237 247 260 267 266 271 275 278 281 284 288 289 290 290 295 300 304 306 301 299 283 285 292 302 320 314 316 317 317 312 301 313
209 215 216 215 222 226 235 242 250 258 263 266 265 265 267 271 275 278 280 283 286 289 294 299 304 313 302 293 287 288 300 316 319 307 312 316 318 325
210 214 216 216 218 221 227 233 244 252 255 254 256 258 256 255 264 269 269 274 276 277 284 293 307 313 294 273 284 292 303 316 323 323 315 303 298 306
212 213 215 216 218 219 222 228 236 245 245 247 251 252 252 253 254 258 262 263 270 278 287 294 300 297 287 282 286 292 297 308 316 322 316 326 326 316